Zurück zum Katalog

COSMOS 1249 COOLANT

LostLEO
NORAD 27570·DEBRIS·🇷🇺 Russia

Gestartet Mar 5, 1981 von Baikonur Cosmodrome

Loading…

Nächste Überflüge (nächste 24 Stunden)

TLE

VeraltetSource: Space-Track

Epoche: Apr 24, 2024, 14:35 UTC

1 27570U 81021S   24115.60796825  .00000527  00000-0  48045-3 0  9997
2 27570  64.9597 184.6916 0042515 165.5237 194.7056 13.91914300539082

Verfolge COSMOS 1249 COOLANT in Echtzeit mit AllMySat

Download on the App Store